STARLINK-11457 [DTC] (62919 NORAD) Tracking and Keplerian Element Data

This shows tracking and keplerian element data for the satellite.

Feedback or suggestion? Click here.




ElementValue
Catalog62919
NameSTARLINK-11457 [DTC]
Epoch Orbit5042
Epoch Day352.73403463
Epoch Year2025
RAAN115.2998
Inclination42.9993
Eccentricity0.0003283
Argument of Perigee247.6413
Mean Anonmoly112.4107
Mean Motion15.70890136
Decay Rate0.00097286
L11 62919U 25027N 25352.73403463 .00097286 00000+0 75110-3 0 9998
L22 62919 42.9993 115.2998 0003283 247.6413 112.4107 15.70890136 50420



Live tracking and technical data element details for STARLINK-11457 [DTC] (NORAD 62919). STARLINK-11457 [DTC] can be tracked NOW for your location showing map with azimuth and elevation plus other details from your city location.







IsCatalogInMostPopularTable: catalog: 62919, numindb: 3
Update: records affected: 1



GetName: 62919 STARLINK-11457 [DTC]

Hit Count: updated at: Sun, 08 Feb 2026 08:51:48 GMT